Location: Newark
(25.0000°N, 73.5000°E)
Time: 23:46:57
(UTC+00:00)

STARLINK-2691 - Pass Details

Date: 16 June 2021
Orbit: 546 x 548 km, 53.1° (Epoch: 03 August)

Event Time Altitude Azimuth Distance (km) Brightness Sun altitude
Exits shadow 23:28:41 12° 213° (SSW) 1,700 5.6 -10.3°
Maximum altitude 23:32:30 75° 129° (SE) 561 3.7 -9.5°
Drops below altitude 10° 23:36:35 10° 43° (NE) 1,800 7.7 -8.7°
Sets 23:38:49 0° 42° (NE) 2,693 8.8 -8.3°
